logo
App data

The Campaign Series: Fall Weiss

Set during the early events of World War 2, Fall Weiss is a new successor to the Panzer General
Store | Hub | SteamDB | Site
Developer: Wastelands Interactive Publisher: Publisher: Wastelands Interactive
Genre: Indie, Strategy
Languages: English, German, Polish
Tags: Strategy (30), Indie (25), World War II (10), Wargame (10), Hex Grid (7)
Category: Single-player, Multi-player, Co-op, Shared/Split Screen, Steam Achievements, Steam Trading Cards
Release date: May 30, 2014
Price: $14.99
Score rank: 13% Userscore: 52% Old userscore: 37%
Owners: 20,000 .. 50,000
Followers: 302
Peak concurrent players yesterday: 1
Playtime total: 03:06 (average) 02:41 (median)

Steam Spy is still in beta, so expect major bugs.

Owners data:

Access restricted.

This feature is only available to users with special access rights. Sorry.

If you want to proceed, you need to register or log in first and then back Steam Spy on Patreon. Look for Indie or Pro pledge.

Don't forget to use the same email as on Steam Spy!

Audience in 2 weeks:

Access restricted.

This feature is only available to users with special access rights. Sorry.

If you want to proceed, you need to register or log in first and then back Steam Spy on Patreon. Look for Indie or Pro pledge.

Don't forget to use the same email as on Steam Spy!

Peak daily concurrent players:

CCU data courtesy of SteamDB. Used with permission.

Hourly concurrent players:

YouTube:

The views data is based on top 50 videos uploaded last week. Actual number of views might be more than the number shown.

The displayed number of videos uploaded yesterday is limited to 50, so if there were more videos uploaded, the number will still show 50.

If the game has commonly used word as its name (like "FEAR" or "Volume") its number of Youtube views might be wrong.

Games similar to this one:

# Game Release date
Price
Score rank
(Userscore / Metascore)
Owners
Players
Playtime (Median)
1 Militia Dec 2, 2015 $5.9999% (98%)0 .. 20,0000%00:00 (00:00)
2 Little Big Adventure 2 Oct 20, 2015 $3.9999% (98%)0 .. 20,0000%00:00 (00:00)
3 Seven Kingdoms: Ancient Adversaries Jun 8, 1998 $5.99N/A (N/A)0 .. 20,0000%00:00 (00:00)
4 Dungeon Warfare Nov 4, 2015 $9.9997% (97%)20,000 .. 50,0000%00:00 (00:00)
5 Voodoo Vince: Remastered Apr 18, 2017 $14.9995% (96%/63%)0 .. 20,0000%00:00 (00:00)
6 Imperium Galactica Mar 1, 1997 $4.99N/A (N/A)0 .. 20,0000%00:00 (00:00)
7 Defend The Highlands Nov 6, 2015 $9.9995% (96%)100,000 .. 200,0002.34%04:29 (03:32)
8 Hegemony Gold: Wars of Ancient Greece Mar 30, 2012 $14.9993% (95%)20,000 .. 50,00014.29%00:02 (00:00)
9 Templar Battleforce Sep 21, 2015 $9.9993% (95%)20,000 .. 50,00011.11%00:12 (00:07)
10 Outcast 1.1 Dec 18, 2014 $5.9993% (95%)20,000 .. 50,0000%00:00 (00:00)
11 PixelJunk Shooter Nov 11, 2013 $8.9993% (95%/73%)100,000 .. 200,0000%00:00 (00:00)
12 Darknet Jun 8, 2017 $14.9993% (95%)0 .. 20,0000%00:00 (00:00)
13 Chicken Invaders 2 Mar 4, 2016 $3.9993% (95%)0 .. 20,0000%00:00 (00:00)
14 ESCHATOS Sep 18, 2015 $8.9990% (94%)0 .. 20,0000%00:00 (00:00)
15 Star Trek: Judgment Rites May 8, 2015 $4.99N/A (N/A)0 .. 20,0000%00:00 (00:00)
16 Gold Rush! Classic Dec 23, 1988 $2.9990% (94%)200,000 .. 500,0000.99%03:42 (04:07)
17 Run or Die Dec 11, 2014 $4.9990% (94%)0 .. 20,0000%00:00 (00:00)
18 Majesty Gold HD Sep 4, 2009 $9.9990% (94%)100,000 .. 200,0000%00:00 (00:00)
19 Neon Chrome Apr 28, 2016 $14.9990% (94%/74%)200,000 .. 500,0000.47%00:23 (00:07)
20 Stick it to The Man! Dec 13, 2013 $7.9990% (94%/83%)20,000 .. 50,0000%00:00 (00:00)
21 Supercharged Robot VULKAISER Jun 4, 2015 $4.9990% (94%)20,000 .. 50,0000%00:00 (00:00)
22 Spider: Rite of the Shrouded Moon Aug 6, 2015 $9.9990% (94%)0 .. 20,0000%00:00 (00:00)
23 Handsome Mr. Frog Aug 8, 2016 $0.9990% (94%)0 .. 20,0005.56%00:03 (00:01)
24 Audio Arena Jul 25, 2016 $6.99N/A (N/A)0 .. 20,0000%00:00 (00:00)
25 Major Mayhem Feb 24, 2014 $4.9987% (93%)20,000 .. 50,0000%00:00 (00:00)
26 Super Trench Attack! Jul 24, 2014 $0.4987% (93%)50,000 .. 100,0000%00:00 (00:00)
27 Ys VI: The Ark of Napishtim Apr 28, 2015 $19.9987% (93%)50,000 .. 100,0000%00:00 (00:00)
28 Bleed Jul 3, 2013 $4.9987% (93%)100,000 .. 200,0001.02%00:01 (00:00)
29 Super Cyborg Jul 8, 2015 $4.9987% (93%)20,000 .. 50,0001.06%00:03 (00:01)
30 RIVE: Wreck, Hack, Die, Retry! Sep 13, 2016 $14.9987% (93%)200,000 .. 500,0000%00:00 (00:00)
31 Adventure in the Tower of Flight Dec 23, 2015 $4.9987% (93%)0 .. 20,0000%00:00 (00:00)
32 Mad Bullets Jun 10, 2016 $0.9987% (93%)0 .. 20,0003.03%01:07 (00:22)
33 Kick Ass Commandos Nov 17, 2016 $9.9987% (93%)0 .. 20,0000%00:00 (00:00)
34 Eufloria HD Oct 14, 2014 $14.9987% (93%)200,000 .. 500,0000.89%00:09 (00:03)
35 Tallowmere Mar 3, 2015 $3.9987% (93%)20,000 .. 50,0000%00:00 (00:00)
36 Pharaoh Rebirth+ Mar 17, 2016 $4.9983% (92%)0 .. 20,0000%00:00 (00:00)
37 Wars and Warriors: Joan of Arc Feb 7, 2004 $6.9983% (92%/60%)0 .. 20,0000%00:00 (00:00)
38 Death Ray Manta SE Sep 17, 2015 $1.9983% (92%)20,000 .. 50,0000%00:00 (00:00)
39 The Juicer Sep 6, 2012 $0.9983% (92%)20,000 .. 50,0000.77%05:09 (01:43)
40 Anarcute Jul 12, 2016 $14.9983% (92%/79%)0 .. 20,0004.55%02:38 (00:52)
41 Ittle Dew Jul 23, 2013 $9.9983% (92%/67%)100,000 .. 200,0000.63%04:32 (01:30)
42 Knightmare Tower Jun 16, 2014 $3.9983% (92%)0 .. 20,0000%00:00 (00:00)
43 Shmups Skill Test シューティング技能検定 Jun 9, 2016 $4.99N/A (N/A)0 .. 20,0000%00:00 (00:00)
44 Great Big War Game Aug 28, 2012 $6.99N/A (N/A)0 .. 20,0000%00:00 (00:00)
45 Battle Academy 2: Eastern Front Sep 12, 2014 $39.9983% (92%/78%)0 .. 20,0000%00:00 (00:00)
46 Below Kryll Sep 7, 2015 $4.9983% (92%)0 .. 20,0000%00:00 (00:00)
47 Counter Spell Oct 5, 2015 $9.9983% (92%)0 .. 20,0000%00:00 (00:00)
48 Armed with Wings: Rearmed Jun 1, 2017 $9.9979% (91%)20,000 .. 50,0001.92%04:54 (01:38)
49 Warrior Kings: Battles Sep 30, 2003 $9.9979% (91%/64%)20,000 .. 50,0000%00:00 (00:00)
50 Blue Estate The Game Apr 8, 2015 $12.9979% (91%/59%)50,000 .. 100,0000%00:00 (00:00)
51 Near Death Aug 2, 2016 $14.9979% (91%/70%)0 .. 20,0000%00:00 (00:00)
52 Miracle Fly Oct 26, 2015 $7.9979% (91%)20,000 .. 50,0000%00:00 (00:00)
53 Explosionade Sep 23, 2015 $3.99N/A (N/A)0 .. 20,0000%00:00 (00:00)
54 Demons with Shotguns Apr 25, 2016 $9.99N/A (N/A)0 .. 20,0000%00:00 (00:00)
55 Ace of Seafood Apr 8, 2016 $5.9979% (91%)0 .. 20,00033.33%00:08 (00:05)
56 Khet 2.0 Oct 1, 2014 $9.9979% (91%)50,000 .. 100,0000%00:00 (00:00)
57 Momodora III Jul 1, 2014 $1.9979% (91%)50,000 .. 100,0000%00:00 (00:00)
58 Swords and Soldiers HD Dec 2, 2010 $9.9979% (91%)200,000 .. 500,0000%00:00 (00:00)
59 Dandy: Or a Brief Glimpse Into the Life of the Candy Alchemist Aug 4, 2015 $9.99N/A (N/A)0 .. 20,0000%00:00 (00:00)
60 Skulls of the Shogun Jul 29, 2013 $9.9979% (91%/72%)50,000 .. 100,0000%00:00 (00:00)
61 Clash of Puppets Dec 16, 2014 $4.9979% (91%)0 .. 20,0000%00:00 (00:00)
62 Valley Aug 24, 2016 $19.9979% (91%)100,000 .. 200,0002.27%00:19 (00:12)
63 Earth Defense Force: Insect Armageddon Dec 14, 2011 $9.9979% (91%/69%)50,000 .. 100,0002.56%00:42 (00:14)
64 Angry Video Game Nerd II: ASSimilation Mar 29, 2016 $9.9979% (91%)20,000 .. 50,00010%01:58 (00:39)
65 System Crash Mar 10, 2016 $14.9976% (90%)0 .. 20,0000%00:00 (00:00)
66 Weird Hero Nov 18, 2016 $2.9976% (90%)0 .. 20,0000%00:00 (00:00)
67 Fort Meow Jun 25, 2015 $7.9976% (90%)0 .. 20,0000%00:00 (00:00)
68 Lethe - Episode One Aug 1, 2016 $14.9976% (90%)0 .. 20,0002.78%03:27 (01:09)
69 Apocalypse: Party's Over May 30, 2016 $4.9976% (90%)0 .. 20,0000%00:00 (00:00)
70 Headlander Jul 25, 2016 $19.9976% (90%/74%)100,000 .. 200,0000%00:00 (00:00)
71 Death's Hangover Jan 20, 2017 $4.9976% (90%)20,000 .. 50,0000%00:00 (00:00)
72 Silent Storm Gold Edition Sep 9, 2004 $9.9976% (90%/83%)200,000 .. 500,0000%00:00 (00:00)
73 Planet of the Eyes Aug 24, 2015 $9.9976% (90%/66%)50,000 .. 100,0000%00:00 (00:00)
74 Superstatic Sep 15, 2015 $4.99N/A (N/A)0 .. 20,0000%00:00 (00:00)
75 Sneaky Sneaky Nov 12, 2014 $4.9973% (89%/63%)0 .. 20,0000%00:00 (00:00)
76 Codename: Panzers, Phase Two Jul 21, 2005 $14.9973% (89%/80%)0 .. 20,0000%00:00 (00:00)
77 Zombo Buster Rising Oct 2, 2016 $1.9973% (89%)0 .. 20,0002.13%01:45 (00:35)
78 Amaranthine Apr 6, 2016 $2.9973% (89%)0 .. 20,0009.09%01:02 (00:41)
79 Reverse Crawl Sep 24, 2015 $5.9973% (89%)20,000 .. 50,0000%00:00 (00:00)
80 Warhammer 40,000: Dawn of War – Winter Assault Aug 7, 2007 $12.9973% (89%)500,000 .. 1,000,0000.31%00:01 (00:00)
81 MoonBase Commander Aug 13, 2002 $5.9973% (89%/77%)20,000 .. 50,0000%00:00 (00:00)
82 Spectromancer Feb 11, 2009 $9.9973% (89%)20,000 .. 50,0000%00:00 (00:00)
83 CastleStorm Jul 29, 2013 $9.9973% (89%/73%)100,000 .. 200,0000%00:00 (00:00)
84 Blacksea Odyssey Jun 1, 2016 $9.9970% (88%/74%)0 .. 20,0000%00:00 (00:00)
85 Super Furball May 13, 2014 $3.99N/A (N/A)0 .. 20,0000%00:00 (00:00)
86 Anodyne Mar 22, 2013 $9.9970% (88%/75%)100,000 .. 200,0000%00:00 (00:00)
87 Battlepillars Gold Edition Apr 28, 2014 $4.9970% (88%)20,000 .. 50,0000%00:00 (00:00)
88 The Fall May 30, 2014 $6.9970% (88%/76%)200,000 .. 500,0000.49%05:45 (01:55)
89 Avoid - Sensory Overload Apr 8, 2014 $4.9970% (88%)0 .. 20,0000%00:00 (00:00)
90 Greed Corp Dec 10, 2010 $9.9970% (88%/76%)200,000 .. 500,0000%00:00 (00:00)
91 Syrian Warfare Feb 21, 2017 $14.9970% (88%)20,000 .. 50,0000%00:00 (00:00)
92 Tcheco in the Castle of Lucio Jun 22, 2015 $0.9970% (88%)50,000 .. 100,0001.62%01:55 (01:54)
93 Interloper May 21, 2015 $170% (88%/77%)50,000 .. 100,0001.22%05:34 (05:34)
94 Atom Zombie Smasher Mar 14, 2011 $9.9970% (88%/75%)200,000 .. 500,0000%00:00 (00:00)
95 The Way May 20, 2016 $14.9970% (88%/67%)20,000 .. 50,0003.7%03:18 (02:11)
96 Graviteam Tactics: Mius-Front Mar 4, 2016 $34.9970% (88%)0 .. 20,0000%00:00 (00:00)
97 Earn to Die 2 May 5, 2016 $2.9970% (88%)20,000 .. 50,00011.11%00:28 (00:09)
98 Spooky Cats Jun 4, 2015 $2.9968% (87%)20,000 .. 50,0000%00:00 (00:00)
99 Civilization IV: Warlords Jul 24, 2006 $4.9968% (87%/84%)1,000,000 .. 2,000,0000%00:00 (00:00)
100 The Tiny Tale 2 Jan 30, 2015 $6.99N/A (N/A)0 .. 20,0000%00:00 (00:00)
101 Sang-Froid - Tales of Werewolves Apr 5, 2013 Free68% (87%/79%)200,000 .. 500,0000.68%08:46 (05:50)
102 Shadow Blade: Reload Aug 10, 2015 $14.9968% (87%/70%)20,000 .. 50,0001.39%04:30 (01:30)
103 TRON 2.0 Aug 22, 2003 $9.9968% (87%/84%)50,000 .. 100,0000%00:00 (00:00)
104 Supreme Commander Sep 28, 2011 $14.9968% (87%/86%)200,000 .. 500,0000%00:00 (00:00)
105 Mr. Shifty Apr 13, 2017 $14.9968% (87%)50,000 .. 100,0000.83%04:01 (02:40)
106 Meltdown Jun 5, 2014 $6.9965% (86%)50,000 .. 100,0000%00:00 (00:00)
107 Neon Shadow Aug 25, 2016 $4.99N/A (N/A)0 .. 20,0000%00:00 (00:00)
108 Ghost Master Dec 21, 2006 $4.9965% (86%/81%)100,000 .. 200,0000%00:00 (00:00)
109 Executive Assault Jul 17, 2015 $12.9965% (86%)20,000 .. 50,0000%00:00 (00:00)
110 Rush for Berlin Gold Oct 29, 2009 $4.9965% (86%/76%)20,000 .. 50,0000%00:00 (00:00)
111 Time Rifters Oct 21, 2014 $9.9965% (86%)0 .. 20,0000%00:00 (00:00)
112 Star Ruler Sep 20, 2010 $9.9965% (86%)100,000 .. 200,0000%00:00 (00:00)
113 Western 1849 Reloaded Feb 10, 2017 $4.9965% (86%)0 .. 20,0000%00:00 (00:00)
114 N2O: Nitrous Oxide Jun 29, 2015 $4.99N/A (N/A)0 .. 20,0000%00:00 (00:00)
115 VelocityUltra Dec 12, 2013 $9.9965% (86%)50,000 .. 100,0000.99%00:01 (00:00)
116 CRYPTARK Jun 20, 2017 $14.9965% (86%/80%)50,000 .. 100,0000%00:00 (00:00)
117 Age of Wonders Shadow Magic Oct 2010 $2.4965% (86%/82%)100,000 .. 200,0001.67%00:42 (00:14)
118 The Haunted: Hells Reach Oct 24, 2011 $8.9965% (86%/51%)50,000 .. 100,0000%00:00 (00:00)
119 Arcane Sorcery Sep 15, 2015 $4.99N/A (N/A)0 .. 20,0000%00:00 (00:00)
120 Super Chibi Knight Jun 24, 2015 $4.9965% (86%)20,000 .. 50,0002.7%01:00 (00:20)
121 Concealed Intent Aug 2, 2016 $14.99N/A (N/A)0 .. 20,0000%00:00 (00:00)
122 ENSLAVED: Odyssey to the West Premium Edition Oct 24, 2013 $19.9962% (85%/70%)200,000 .. 500,0000.33%00:19 (00:06)
123 Dustoff Heli Rescue Mar 6, 2015 $3.9962% (85%)20,000 .. 50,0000%00:00 (00:00)
124 Steel Rain Dec 3, 2015 $2.8962% (85%)0 .. 20,0000%00:00 (00:00)
125 Magnifico Dec 2, 2014 $4.9962% (85%)50,000 .. 100,0000%00:00 (00:00)
126 NOBUNAGA'S AMBITION: Souzou (Traditional Chinese version) Aug 2014 $24.9962% (85%)20,000 .. 50,00020%17:33 (05:51)
127 Slash or Die Jun 3, 2016 $2.9962% (85%)50,000 .. 100,0001.27%04:18 (02:51)
128 ShootMania Storm Apr 10, 2013 $19.9962% (85%/76%)50,000 .. 100,0000%00:00 (00:00)
129 Battle Group 2 Jun 13, 2014 $7.9960% (84%)50,000 .. 100,0000%00:00 (00:00)
130 Rooks Keep Dec 5, 2014 $7.9960% (84%)20,000 .. 50,0000%00:00 (00:00)
131 Yomi May 8, 2015 $14.9960% (84%)0 .. 20,00050%04:21 (02:10)
132 Foresight Nov 28, 2014 $4.99N/A (N/A)0 .. 20,0000%00:00 (00:00)
133 Eador: Genesis Aug 7, 2009 $5.9960% (84%)20,000 .. 50,0000%00:00 (00:00)
134 Gurgamoth Feb 16, 2016 $4.9960% (84%)50,000 .. 100,0000%00:00 (00:00)
135 Sudden Strike 2 Gold Aug 30, 2002 $5.9960% (84%)20,000 .. 50,0000%00:00 (00:00)
136 The Men of Yoshiwara: Kikuya Oct 15, 2015 $29.9960% (84%)0 .. 20,0000%00:00 (00:00)
137 Act of War: Direct Action Mar 12, 2008 $2.9960% (84%/82%)20,000 .. 50,0000%00:00 (00:00)
138 Ballistic Tanks Sep 20, 2016 $4.9960% (84%)0 .. 20,0000%00:00 (00:00)
139 Last Knight: Rogue Rider Edition Oct 3, 2014 $7.9960% (84%)20,000 .. 50,0001.59%03:01 (01:00)
140 Child Of Ault Jan 24, 2017 $9.99N/A (N/A)0 .. 20,0000%00:00 (00:00)
141 Advanced Tactics Gold Apr 12, 2011 $29.9960% (84%)0 .. 20,0000%00:00 (00:00)
142 Fat Chicken Dec 4, 2014 $9.99N/A (N/A)0 .. 20,0000%00:00 (00:00)
143 Conflict Desert Storm May 28, 2012 $6.9960% (84%/56%)20,000 .. 50,0000%00:00 (00:00)
144 Galaxy Admirals Jan 17, 2017 $1.9957% (83%)50,000 .. 100,0000.62%03:01 (01:00)
145 Crush Your Enemies Jul 13, 2016 $9.9957% (83%/63%)20,000 .. 50,0000%00:00 (00:00)
146 Bulletstorm: Full Clip Edition Apr 7, 2017 $39.9957% (83%/76%)20,000 .. 50,00012%01:30 (01:29)
147 Legend (1994) Apr 1, 1994 $2.49N/A (N/A)0 .. 20,0000%00:00 (00:00)
148 Disciples Sacred Lands Gold Oct 4, 1999 $7.9957% (83%)20,000 .. 50,0000%00:00 (00:00)
149 Rack N Ruin Sep 1, 2015 $9.9957% (83%)0 .. 20,0000%00:00 (00:00)
150 Delta Force 2 Jun 18, 2009 $4.9957% (83%)50,000 .. 100,0000%00:00 (00:00)
151 NOBUNAGA'S AMBITION: Sphere of Influence Sep 1, 2015 $59.9957% (83%/70%)20,000 .. 50,0000%00:00 (00:00)
152 Orbital Gear Aug 7, 2014 $9.9957% (83%/59%)200,000 .. 500,0001.05%01:33 (01:31)
153 Ace of Protectors Jun 27, 2016 $1.99N/A (N/A)0 .. 20,0003.45%06:08 (02:02)
154 TY the Tasmanian Tiger 4 Sep 17, 2015 $5.9957% (83%)0 .. 20,0000%00:00 (00:00)
155 After The End: The Harvest Jun 2, 2017 $4.9955% (82%)20,000 .. 50,0001.69%07:32 (02:30)
156 htoL#NiQ: The Firefly Diary / htoL#NiQ-ホタルノニッキ- May 18, 2016 $9.9955% (82%)0 .. 20,0000%00:00 (00:00)
157 Fleet Command Oct 26, 2006 $9.9955% (82%)20,000 .. 50,0000%00:00 (00:00)
158 Shadow Ops: Red Mercury Sep 17, 2004 $6.9955% (82%/61%)20,000 .. 50,0000%00:00 (00:00)
159 Defense Zone Jul 14, 2014 $2.99N/A (N/A)0 .. 20,0000%00:00 (00:00)
160 In Verbis Virtus Apr 3, 2015 $19.9953% (81%)50,000 .. 100,0002.17%02:00 (00:40)
161 Square Brawl Oct 22, 2015 $4.9953% (81%)0 .. 20,0000%00:00 (00:00)
162 Enemy Mind Jun 6, 2014 $9.9953% (81%)200,000 .. 500,0000.29%03:01 (01:00)
163 Age of Wonders Oct 2010 $1.4953% (81%)100,000 .. 200,0001.75%00:05 (00:01)
164 Defense Zone 3 Ultra HD Dec 14, 2016 $2.9953% (81%)0 .. 20,0000%00:00 (00:00)
165 She Wants Me Dead May 13, 2016 $7.9953% (81%)0 .. 20,0000%00:00 (00:00)
166 Afghanistan '11 Mar 23, 2017 $29.9953% (81%)0 .. 20,0000%00:00 (00:00)
167 PixelJunk Shooter Ultimate Oct 21, 2015 $9.9953% (81%)0 .. 20,0000%00:00 (00:00)
168 Jim Power -The Lost Dimension Dec 10, 1993 $2.49N/A (N/A)0 .. 20,0000%00:00 (00:00)
169 rymdkapsel Jan 30, 2014 $7.9953% (81%/77%)0 .. 20,0000%00:00 (00:00)
170 Toadled Sep 22, 2016 $0.9953% (81%)20,000 .. 50,0000.71%03:04 (01:21)
171 Junk Jack Nov 30, 2016 $14.9953% (81%)0 .. 20,0000%00:00 (00:00)
172 Dominions 3: The Awakening Sep 10, 2013 $4.9950% (80%/82%)0 .. 20,0000%00:00 (00:00)
173 Trigger Runners Mar 3, 2016 $1.9950% (80%)0 .. 20,0000%00:00 (00:00)
174 Age of Gladiators Feb 25, 2016 $9.9950% (80%)20,000 .. 50,0001.89%05:59 (01:59)
175 Gatling Gears Aug 30, 2011 $9.9950% (80%)20,000 .. 50,0000%00:00 (00:00)
176 7,62 High Calibre Aug 24, 2007 $4.9950% (80%)50,000 .. 100,0000%00:00 (00:00)
177 Weapon of Choice Sep 23, 2015 $4.99N/A (N/A)0 .. 20,0002.22%01:01 (00:20)
178 Making History: The Calm & the Storm Mar 13, 2007 $4.9950% (80%/70%)50,000 .. 100,0000%00:00 (00:00)
179 Umihara Kawase Shun: Steam Edition Nov 24, 2015 $11.99N/A (N/A)0 .. 20,0000%00:00 (00:00)
180 Tiki Man Jun 4, 2015 $0.550% (80%)20,000 .. 50,0001.09%00:04 (00:01)
181 Supreme Ruler 2020 Gold Jul 9, 2009 $9.9950% (80%/65%)50,000 .. 100,0000%00:00 (00:00)
182 Zeno Clash 2 Apr 30, 2013 $14.9950% (80%)100,000 .. 200,0000%00:00 (00:00)
183 Bloodsports.TV Mar 30, 2015 $9.9950% (80%/69%)50,000 .. 100,0000.87%03:02 (01:00)
184 Anomaly 2 May 15, 2013 $14.9950% (80%/77%)200,000 .. 500,0001.2%01:27 (01:27)
185 Monday Night Combat Jan 24, 2011 $4.9950% (80%/82%)200,000 .. 500,0000.76%00:06 (00:02)
186 Ninjahtic Jul 6, 2015 $1.9950% (80%)0 .. 20,0000%00:00 (00:00)
187 Legends of Callasia Jun 10, 2016 $14.9950% (80%)50,000 .. 100,0000%00:00 (00:00)
188 ROD: Revolt Of Defense Aug 12, 2016 $0.9950% (80%)20,000 .. 50,0000%00:00 (00:00)
189 Interplanetary May 12, 2015 N/A50% (80%)100,000 .. 200,0000%00:00 (00:00)
190 Perimeter May 21, 2004 $3.9950% (80%/77%)20,000 .. 50,0000%00:00 (00:00)
191 Graviteam Tactics: Operation Star Mar 22, 2012 $29.9950% (80%)20,000 .. 50,0000%00:00 (00:00)
192 Anomaly Warzone Earth Mobile Campaign Nov 6, 2013 $4.9950% (80%)100,000 .. 200,0000.58%04:02 (01:20)
193 Run Rabbit Run Mar 31, 2016 $3.9950% (80%)0 .. 20,0000%00:00 (00:00)
194 Fate of the World Feb 28, 2011 $9.9950% (80%/70%)50,000 .. 100,0000%00:00 (00:00)
195 Gun Metal Sep 23, 2003 $2.9950% (80%)200,000 .. 500,0001.34%03:32 (03:09)
196 Conquest of Elysium 3 Oct 24, 2012 $9.9950% (80%)20,000 .. 50,0000%00:00 (00:00)
197 Demolition Inc. Sep 19, 2011 $5.9948% (79%)50,000 .. 100,0000%00:00 (00:00)
198 Hail to the King: Deathbat Oct 30, 2014 $5.9948% (79%)0 .. 20,0000%00:00 (00:00)
199 Cultures - 8th Wonder of the World Mar 26, 2015 $4.9948% (79%)50,000 .. 100,0001.2%00:03 (00:01)
200 Zombie Party Jun 10, 2016 $9.9948% (79%)100,000 .. 200,0000%00:00 (00:00)
201 Nuclear Dawn Sep 26, 2011 $9.9948% (79%/71%)200,000 .. 500,0000%00:00 (00:00)
202 Vietnam ‘65 Mar 5, 2015 $9.9948% (79%/81%)20,000 .. 50,0000%00:00 (00:00)
203 Ironcast Mar 26, 2015 $14.9948% (79%/75%)20,000 .. 50,0000%00:00 (00:00)
204 Locoland Nov 22, 2003 $4.9948% (79%)0 .. 20,0000%00:00 (00:00)
205 Starscape Nov 3, 2008 $7.9948% (79%)20,000 .. 50,0000%00:00 (00:00)
206 Caster Mar 19, 2009 $1.9948% (79%)200,000 .. 500,0000.28%00:01 (00:00)
207 Klang Sep 22, 2016 $14.9948% (79%/71%)0 .. 20,0000%00:00 (00:00)
208 David. Mar 14, 2014 $1.9948% (79%)50,000 .. 100,0000.83%04:32 (01:30)
209 TRON RUN/r Feb 16, 2016 $19.9948% (79%)0 .. 20,0000%00:00 (00:00)
210 Advent Rising Sep 14, 2006 $9.9948% (79%/70%)20,000 .. 50,0000%00:00 (00:00)
211 TASTEE: Lethal Tactics May 10, 2016 $14.9948% (79%)20,000 .. 50,0001.75%02:31 (00:50)
212 Fortified Feb 3, 2016 $14.9948% (79%)0 .. 20,0007.14%00:05 (00:01)
213 Star Wolves 3: Civil War Mar 2, 2010 $4.9948% (79%)100,000 .. 200,0000%00:00 (00:00)
214 Protoshift Jan 15, 2016 $0.9948% (79%)0 .. 20,0000%00:00 (00:00)
215 Fantasy Wars Aug 6, 2010 $4.9948% (79%/67%)50,000 .. 100,0000%00:00 (00:00)
216 Battle Mages: Sign of Darkness Apr 13, 2006 $4.9946% (78%)20,000 .. 50,0000%00:00 (00:00)
217 Aeon Command Jul 3, 2014 $2.9946% (78%)20,000 .. 50,0000%00:00 (00:00)
218 Tank Destroyer Mar 9, 2017 $2.9946% (78%)20,000 .. 50,0001.61%00:59 (00:19)
219 Making History II: The War of the World Aug 27, 2010 $14.9946% (78%/38%)20,000 .. 50,0000%00:00 (00:00)
220 Zombie Killtime Aug 4, 2015 $1.99N/A (N/A)0 .. 20,0000%00:00 (00:00)
221 Dangerous Waters Feb 7, 2006 $14.9946% (78%/82%)50,000 .. 100,0000%00:00 (00:00)
222 PAC-MAN and the Ghostly Adventures Oct 29, 2013 $19.9946% (78%)0 .. 20,0000%00:00 (00:00)
223 Strike Suit Zero: Director's Cut Apr 8, 2014 $19.9946% (78%)20,000 .. 50,0000%00:00 (00:00)
224 Star Realms Mar 8, 2016 Free46% (78%)100,000 .. 200,0000%00:00 (00:00)
225 Vector Strain Dec 9, 2015 $4.99N/A (N/A)20,000 .. 50,0000%00:00 (00:00)
226 Deadly 30 Jan 8, 2014 $4.9946% (78%)100,000 .. 200,0006.47%04:50 (04:48)
227 Battlezone Gold Edition May 11, 2017 $34.9946% (78%)0 .. 20,0000%00:00 (00:00)
228 Curse of the Crescent Isle DX Aug 21, 2015 $4.9946% (78%)0 .. 20,0000%00:00 (00:00)
229 Dead Rising 2: Off the Record Oct 11, 2011 $19.9946% (78%/66%)200,000 .. 500,0001.01%02:05 (02:03)
230 Mold on Pizza Sep 25, 2015 $5.9946% (78%)0 .. 20,0000%00:00 (00:00)
231 Envoy Mar 17, 2016 $4.9946% (78%)50,000 .. 100,0000.46%05:31 (01:50)
232 Pharaonic Apr 28, 2016 $14.9946% (78%)20,000 .. 50,0000%00:00 (00:00)
233 The Legend of Dark Witch Dec 1, 2015 $4.9946% (78%)20,000 .. 50,0000%00:00 (00:00)
234 Warlords Battlecry III May 17, 2004 $9.9944% (77%/73%)0 .. 20,0000%00:00 (00:00)
235 Sky Gamblers: Storm Raiders Jan 7, 2015 $9.9944% (77%)0 .. 20,0000%00:00 (00:00)
236 The Political Machine 2016 Feb 4, 2016 $9.9944% (77%)50,000 .. 100,0000%00:00 (00:00)
237 Riddled Corpses Jun 2, 2015 $7.9944% (77%)20,000 .. 50,0001.52%00:08 (00:02)
238 Bet On Soldier Sep 26, 2005 $7.9944% (77%)50,000 .. 100,0000%00:00 (00:00)
239 McDROID Sep 5, 2014 $9.9944% (77%)0 .. 20,0000%00:00 (00:00)
240 Painkiller Hell & Damnation Oct 31, 2012 $19.9944% (77%/64%)500,000 .. 1,000,0000.34%00:16 (00:05)
241 A.R.E.S. Extinction Agenda EX Oct 3, 2014 $9.9944% (77%)0 .. 20,0000%00:00 (00:00)
242 A Blind Legend Apr 7, 2016 $6.9944% (77%)0 .. 20,0000%00:00 (00:00)
243 Rocketbirds 2 Evolution Jan 26, 2017 $9.9944% (77%)0 .. 20,0000%00:00 (00:00)
244 Spirits of Xanadu Mar 26, 2015 $4.9944% (77%)20,000 .. 50,0001.67%02:36 (00:52)
245 Mysterium: A Psychic Clue Game Jan 12, 2017 $9.9944% (77%)50,000 .. 100,0000.62%00:38 (00:12)
246 Olympia Rising Jul 23, 2015 $4.9944% (77%)0 .. 20,0000%00:00 (00:00)
247 King of Dragon Pass Jul 28, 2015 $11.9944% (77%)20,000 .. 50,0000.93%11:36 (03:52)
248 Warhammer 40,000: Armageddon Nov 26, 2014 $39.9944% (77%/68%)20,000 .. 50,0000%00:00 (00:00)
249 Monster Monpiece Mar 14, 2017 $19.9943% (76%)20,000 .. 50,0005.71%04:50 (03:13)
250 WARSHIFT Oct 12, 2016 $12.9943% (76%)20,000 .. 50,0000%00:00 (00:00)
251 Z Jul 4, 2014 $0.6943% (76%)100,000 .. 200,0001.8%03:51 (02:23)
252 Star Hammer: The Vanguard Prophecy Jun 4, 2015 $19.9943% (76%/69%)0 .. 20,0000%00:00 (00:00)
253 Chaser Jul 16, 2010 $4.9943% (76%/66%)100,000 .. 200,0001.32%01:56 (00:38)
254 Extravaganza Rising Jul 21, 2016 $5.99N/A (N/A)0 .. 20,0000%00:00 (00:00)
255 Heroes of Might & Magic V: Hammers of Fate Oct 10, 2008 $9.9943% (76%/66%)20,000 .. 50,0001.18%00:33 (00:11)
256 Livelock Aug 30, 2016 $9.9943% (76%/73%)20,000 .. 50,0002.13%04:57 (01:39)
257 Cashtronauts Sep 1, 2016 $2.9943% (76%)0 .. 20,0000%00:00 (00:00)
258 Rocket Knight May 11, 2010 $14.9943% (76%/63%)0 .. 20,0000%00:00 (00:00)
259 Deadlings: Rotten Edition Nov 11, 2014 $3.9943% (76%)50,000 .. 100,0000%00:00 (00:00)
260 Master Reboot Oct 29, 2013 $4.4943% (76%/59%)50,000 .. 100,0001.11%00:03 (00:01)
261 Heroes of Arca Feb 16, 2017 Free43% (76%)0 .. 20,0000%00:00 (00:00)
262 BloodRayne Sep 14, 2006 $9.9943% (76%/65%)50,000 .. 100,0000%00:00 (00:00)
263 Starchaser: Priestess of the Night Sky Jul 24, 2015 $3.29N/A (N/A)0 .. 20,0000%00:00 (00:00)
264 Velocity 2X Aug 19, 2015 $19.9943% (76%)50,000 .. 100,0000%00:00 (00:00)
265 Battle Time Sep 29, 2016 $0.9943% (76%)20,000 .. 50,0000%00:00 (00:00)
266 AirMech Command Mar 8, 2017 $19.9941% (75%)0 .. 20,0000%00:00 (00:00)
267 Albino Lullaby: Episode 1 Sep 15, 2015 $9.9941% (75%)20,000 .. 50,0000%00:00 (00:00)
268 Platformines Mar 28, 2014 $9.9941% (75%/67%)100,000 .. 200,0000%00:00 (00:00)
269 FIVE: Champions of Canaan Sep 27, 2016 $3.9941% (75%)0 .. 20,0000%00:00 (00:00)
270 Zoo Empire Aug 1, 2004 $6.99N/A (N/A/59%)0 .. 20,0000%00:00 (00:00)
271 Pick a Hero Jun 9, 2016 $0.99N/A (N/A)0 .. 20,0000%00:00 (00:00)
272 Perimeter: Emperor's Testament Aug 29, 2006 $3.99N/A (N/A/72%)20,000 .. 50,0000%00:00 (00:00)
273 Commander: The Great War Nov 12, 2012 $29.9941% (75%)0 .. 20,0000%00:00 (00:00)
274 The Superfluous May 19, 2017 $4.99N/A (N/A)0 .. 20,0000%00:00 (00:00)
275 Smell Of Death Jul 4, 2016 $9.9941% (75%)0 .. 20,0000%00:00 (00:00)
276 Civil War II Sep 17, 2013 $39.9941% (75%)0 .. 20,0000%00:00 (00:00)
277 Onechanbara Z2: Chaos Jun 2, 2016 $39.9941% (75%)0 .. 20,0000%00:00 (00:00)
278 GEARGUNS Tank offensive Sep 22, 2016 $7.9941% (75%)20,000 .. 50,0002.6%04:08 (02:45)
279 Victory At Sea Aug 8, 2014 $24.9941% (75%)20,000 .. 50,0000%00:00 (00:00)
280 Fist Puncher Jun 21, 2013 $9.9941% (75%/73%)20,000 .. 50,0000%00:00 (00:00)
281 Corgi Warlock Dec 3, 2015 $1.9941% (75%)20,000 .. 50,0000%00:00 (00:00)
282 CivCity: Rome Apr 6, 2007 $9.9941% (75%/67%)50,000 .. 100,0000%00:00 (00:00)
283 BossConstructor Oct 24, 2016 $14.9941% (75%)0 .. 20,0000%00:00 (00:00)
284 Phoning Home Feb 7, 2017 $19.9939% (74%/61%)20,000 .. 50,0000%00:00 (00:00)
285 Viktor Jun 13, 2014 $7.9939% (74%)20,000 .. 50,0000%00:00 (00:00)
286 FEIST Jul 23, 2015 $9.9939% (74%)20,000 .. 50,0000%00:00 (00:00)
287 Codex of Victory Mar 16, 2017 $14.9939% (74%)0 .. 20,0000%00:00 (00:00)
288 Hunting Unlimited 2008 Jan 29, 2008 $9.99N/A (N/A)20,000 .. 50,0000%00:00 (00:00)
289 Supreme Ruler Ultimate Oct 17, 2014 $19.9939% (74%)20,000 .. 50,0000%00:00 (00:00)
290 Vampire of the Sands Jul 17, 2015 $4.9939% (74%)20,000 .. 50,0000%00:00 (00:00)
291 VRZ: Torment Jun 9, 2016 $9.9939% (74%)0 .. 20,0000%00:00 (00:00)
292 Divinity: Dragon Commander Aug 6, 2013 $39.9939% (74%)200,000 .. 500,0000.66%01:10 (00:23)
293 Othello Aug 5, 2016 $9.9939% (74%)0 .. 20,0000%00:00 (00:00)
294 Sid Meier’s Ace Patrol Aug 27, 2013 $4.9939% (74%)500,000 .. 1,000,0000%00:00 (00:00)
295 Distant Worlds: Universe May 23, 2014 $59.9939% (74%/81%)50,000 .. 100,00012.5%12:09 (08:05)
296 Bubsy Two-Fur Jan 1, 1993 $4.9939% (74%)20,000 .. 50,0003.23%00:03 (00:01)
297 Ubersoldier II Jul 22, 2008 $9.9939% (74%/62%)100,000 .. 200,0000%00:00 (00:00)
298 Banzai Escape Mar 16, 2016 $5.9939% (74%)0 .. 20,0000%00:00 (00:00)
299 Making History: The Great War Jan 29, 2015 $29.9939% (74%)20,000 .. 50,0000%00:00 (00:00)
300 TableTop Soccer Apr 22, 2016 $0.9939% (74%)0 .. 20,0000%00:00 (00:00)
301 Auro: A Monster-Bumping Adventure Apr 13, 2016 $6.9939% (74%)0 .. 20,0000%00:00 (00:00)
302 Death by Game Show Jan 22, 2016 $9.9937% (73%)20,000 .. 50,0001.79%01:16 (00:25)
303 Cast of the Seven Godsends - Redux Jul 20, 2015 $9.9937% (73%)20,000 .. 50,0000%00:00 (00:00)
304 Rex Rocket Aug 5, 2014 $4.9937% (73%)20,000 .. 50,0000%00:00 (00:00)
305 Hot Tin Roof: The Cat That Wore A Fedora Feb 20, 2015 $1.4937% (73%/66%)100,000 .. 200,0000%00:00 (00:00)
306 Retrovirus Jan 31, 2013 $9.9937% (73%/70%)0 .. 20,0000%00:00 (00:00)
307 The Aquatic Adventure of the Last Human Jan 19, 2016 $9.9937% (73%/76%)0 .. 20,0000%00:00 (00:00)
308 LEGO Indiana Jones 2: The Adventure Continues Feb 18, 2010 $19.9937% (73%/66%)50,000 .. 100,0000%00:00 (00:00)
309 King Arthur - The Role-playing Wargame Nov 24, 2009 $9.9935% (72%)200,000 .. 500,0000%00:00 (00:00)
310 Wyv and Keep: The Temple of the Lost Idol Aug 8, 2014 $14.9935% (72%)20,000 .. 50,0000%00:00 (00:00)
311 rooMaze Mar 3, 2017 $1.9935% (72%)100,000 .. 200,0001.05%02:38 (01:45)
312 Cross of the Dutchman Sep 10, 2015 $8.9935% (72%/59%)20,000 .. 50,0000%00:00 (00:00)
313 Fatal Fight Jun 10, 2016 $2.9935% (72%)0 .. 20,0000%00:00 (00:00)
314 Heaven Forest NIGHTS Mar 13, 2017 $0.9935% (72%)100,000 .. 200,0001.65%04:03 (04:43)
315 Warp Mar 21, 2012 $9.9935% (72%)50,000 .. 100,0000%00:00 (00:00)
316 Panzer Tactics HD May 22, 2014 $9.9935% (72%/69%)20,000 .. 50,0000%00:00 (00:00)
317 Smithy Jun 3, 2016 $0.51N/A (N/A)50,000 .. 100,0000%00:00 (00:00)
318 Gold Rush! Anniversary Nov 7, 2014 $5.9935% (72%)100,000 .. 200,0002.04%03:54 (04:29)
319 Airship Dragoon Aug 26, 2014 $19.99N/A (N/A)0 .. 20,0000%00:00 (00:00)
320 Alarameth TD Jun 23, 2015 $4.99N/A (N/A)0 .. 20,0000%00:00 (00:00)
321 There Came an Echo Feb 24, 2015 $14.9935% (72%/58%)20,000 .. 50,0002.5%00:05 (00:01)
322 Civil War: Battle of Petersburg Feb 8, 2017 $0.9935% (72%)0 .. 20,0001.03%00:04 (00:01)
323 Battle Fleet 2 Nov 20, 2014 $14.9935% (72%)20,000 .. 50,0000%00:00 (00:00)
324 The Last Federation Apr 18, 2014 $19.9935% (72%/72%)50,000 .. 100,0000%00:00 (00:00)
325 Wildlife Park 2 - Crazy Zoo Mar 30, 2007 $3.99N/A (N/A)0 .. 20,0000%00:00 (00:00)
326 Cuban Missile Crisis May 6, 2005 $4.9935% (72%)20,000 .. 50,0000%00:00 (00:00)
327 Deadnaut Nov 27, 2014 $9.9935% (72%)0 .. 20,0000%00:00 (00:00)
328 Pongo May 14, 2015 $0.9935% (72%)50,000 .. 100,0001.85%01:43 (01:08)
329 Rise & Shine Jan 13, 2017 $14.9935% (72%)20,000 .. 50,0001.89%02:45 (00:55)
330 REDCON Apr 22, 2016 $5.9934% (71%)0 .. 20,0000%00:00 (00:00)
331 Lost Planet: Extreme Condition Jun 26, 2007 $14.9934% (71%/66%)200,000 .. 500,0001.54%00:28 (00:09)
332 Zombie Camp Aug 1, 2016 $1.99N/A (N/A)0 .. 20,0000%00:00 (00:00)
333 Jagged Alliance 2 - Wildfire Nov 16, 2012 $6.9934% (71%)200,000 .. 500,0001.52%07:17 (07:08)
334 Space Colony: Steam Edition Apr 30, 2015 $14.9934% (71%/74%)20,000 .. 50,0000%00:00 (00:00)
335 Revolution Under Siege Gold Jul 2, 2015 $24.9934% (71%)0 .. 20,0000%00:00 (00:00)
336 Tom Clancy's EndWar Feb 25, 2009 $9.9934% (71%/68%)50,000 .. 100,0000%00:00 (00:00)
337 Lux Delux May 1, 2015 $9.9934% (71%)20,000 .. 50,0000%00:00 (00:00)
338 Disney Planes Aug 6, 2013 $19.99N/A (N/A)0 .. 20,0000%00:00 (00:00)
339 Elliot Quest Nov 10, 2014 $9.9934% (71%)20,000 .. 50,0000%00:00 (00:00)
340 A.R.E.S.: Extinction Agenda Jan 19, 2011 $4.9934% (71%/68%)100,000 .. 200,0000%00:00 (00:00)
341 Incandescent Jun 30, 2015 $0.9932% (70%)20,000 .. 50,0000.77%13:42 (04:34)
342 BitMaster Oct 12, 2016 $2.9932% (70%)200,000 .. 500,0000.23%02:09 (00:43)
343 Elven Legacy Apr 7, 2009 $4.9932% (70%/71%)50,000 .. 100,0000%00:00 (00:00)
344 Little King's Story Aug 5, 2016 $19.9932% (70%/62%)0 .. 20,00014.29%03:03 (01:01)
345 Zombie City Defense 2 Aug 19, 2016 $9.9932% (70%)0 .. 20,0000%00:00 (00:00)
346 Collapse Sep 25, 2008 $19.9931% (69%)50,000 .. 100,0000%00:00 (00:00)
347 Guns n Zombies Oct 30, 2014 $7.9931% (69%)100,000 .. 200,0000%00:00 (00:00)
348 1775: Rebellion Sep 29, 2016 $24.99N/A (N/A)0 .. 20,0004.55%00:49 (00:16)
349 Quick Slick Deadly Sep 21, 2015 $1.9931% (69%)20,000 .. 50,0000%00:00 (00:00)
350 Strategy & Tactics: Wargame Collection Apr 22, 2016 $9.9931% (69%)20,000 .. 50,0000.99%04:32 (01:30)
351 UnSummoning: the Spectral Horde Dec 21, 2015 $3.99N/A (N/A)0 .. 20,0000%00:00 (00:00)
352 Warrior Kings Apr 13, 2002 $9.9931% (69%/73%)20,000 .. 50,0000%00:00 (00:00)
353 RISK: Factions Mar 8, 2011 $9.9931% (69%/77%)50,000 .. 100,0000%00:00 (00:00)
354 Spud's Quest Jul 31, 2014 $7.99N/A (N/A)0 .. 20,0000%00:00 (00:00)
355 FIVE: Guardians of David Nov 24, 2015 $9.9931% (69%/66%)20,000 .. 50,0000%00:00 (00:00)
356 The Nightmare Cooperative Jul 16, 2014 $4.9931% (69%)50,000 .. 100,0000%00:00 (00:00)
357 Sol 0: Mars Colonization Jan 15, 2016 $3.9931% (69%)20,000 .. 50,0000%00:00 (00:00)
358 Brigade E5: New Jagged Union Oct 17, 2006 $3.9931% (69%/41%)0 .. 20,0000%00:00 (00:00)
359 YAIBA: NINJA GAIDEN Z Mar 21, 2014 $29.9931% (69%/49%)20,000 .. 50,0000%00:00 (00:00)
360 Alea Jacta Est Sep 27, 2012 $24.9931% (69%)20,000 .. 50,0000%00:00 (00:00)
361 ManaCollect Apr 17, 2015 $6.9929% (68%)0 .. 20,0004.35%03:04 (01:01)
362 Crazy Forest Jul 6, 2016 $4.9929% (68%)100,000 .. 200,0000%00:00 (00:00)
363 Fair Strike Feb 5, 2004 $3.99N/A (N/A/56%)0 .. 20,0000%00:00 (00:00)
364 Warhammer 40,000: Armageddon - Da Orks Aug 18, 2016 $19.99N/A (N/A)0 .. 20,00050%00:02 (00:01)
365 Stonerid Dec 18, 2013 $4.9929% (68%)50,000 .. 100,0000%00:00 (00:00)
366 Toren May 11, 2015 $9.9929% (68%/57%)50,000 .. 100,0001.83%02:40 (01:46)
367 Pigmentone Jul 8, 2016 $1.99N/A (N/A)0 .. 20,0007.69%01:30 (00:30)
368 8-Bit Commando Jul 27, 2011 $2.9928% (67%)50,000 .. 100,0000%00:00 (00:00)
369 Zafehouse: Diaries Sep 6, 2013 $1.9928% (67%)50,000 .. 100,0000%00:00 (00:00)
370 Survivor Squad: Gauntlets Nov 16, 2015 $4.9928% (67%)20,000 .. 50,0000%00:00 (00:00)
371 Scourge: Outbreak Apr 2, 2014 $7.9928% (67%)100,000 .. 200,0000%00:00 (00:00)
372 Chainsaw Warrior Oct 7, 2013 $4.9928% (67%)100,000 .. 200,0000%00:00 (00:00)
373 Sengoku Sep 15, 2011 $9.9928% (67%/70%)100,000 .. 200,0000%00:00 (00:00)
374 The Hive Aug 25, 2016 $9.9928% (67%)20,000 .. 50,0000%00:00 (00:00)
375 Kill The Plumber Dec 31, 2015 $4.9928% (67%)0 .. 20,0000%00:00 (00:00)
376 Royal Defense Nov 6, 2014 $4.9928% (67%)50,000 .. 100,0000%00:00 (00:00)
377 Nomad Fleet Jul 14, 2015 $1.4928% (67%)0 .. 20,0000%00:00 (00:00)
378 Toy Odyssey: The Lost and Found Sep 20, 2016 $14.9928% (67%/66%)50,000 .. 100,0001.69%06:04 (04:02)
379 Theatre of War 2: Africa 1943 Jul 9, 2010 $4.9928% (67%/63%)20,000 .. 50,0000%00:00 (00:00)
380 Sky To Fly: Faster Than Wind Mar 25, 2016 $3.9926% (66%)0 .. 20,0000%00:00 (00:00)
381 Men of War: Condemned Heroes Apr 12, 2012 $7.9926% (66%/57%)100,000 .. 200,0000%00:00 (00:00)
382 Mad Combat Marines Jul 13, 2016 $0.4926% (66%)0 .. 20,0000%00:00 (00:00)
383 Bedlam Oct 13, 2015 $12.9926% (66%/54%)100,000 .. 200,0006.83%02:32 (02:43)
384 Commander Cool 2 Dec 17, 2015 $2.9926% (66%)50,000 .. 100,0001.11%02:55 (00:58)
385 1849 May 8, 2014 $14.9926% (66%)20,000 .. 50,0000%00:00 (00:00)
386 7th Legion Jan 1, 1997 $6.99N/A (N/A)20,000 .. 50,0000%00:00 (00:00)
387 The Living Dungeon Nov 2, 2015 $12.9926% (66%)0 .. 20,0000%00:00 (00:00)
388 Assassin’s Creed Chronicles: India Jan 12, 2016 $9.9926% (66%)20,000 .. 50,0004.35%22:38 (07:32)
389 Marauder Sep 10, 2009 $9.9925% (65%)50,000 .. 100,0000%00:00 (00:00)
390 Theatre of War 2: Kursk 1943 Jul 9, 2010 $4.9925% (65%)50,000 .. 100,0000%00:00 (00:00)
391 Hunters Of The Dead Sep 4, 2014 $0.9925% (65%)20,000 .. 50,0000%00:00 (00:00)
392 Zombie Tycoon 2: Brainhov's Revenge Dec 9, 2013 $4.9925% (65%)50,000 .. 100,0000%00:00 (00:00)
393 Devil's Dare 悪魔の挑戦 Oct 21, 2014 $12.9925% (65%)20,000 .. 50,0000%00:00 (00:00)
394 Malebolgia May 6, 2015 $12.9925% (65%)0 .. 20,0000%00:00 (00:00)
395 Infinity Runner Jul 14, 2014 $2.7925% (65%/56%)0 .. 20,0000%00:00 (00:00)
396 Ground Breakers Jun 15, 2016 $4.99N/A (N/A)0 .. 20,0000%00:00 (00:00)
397 Platypus II Mar 17, 2007 $6.9925% (65%)200,000 .. 500,0001.32%03:26 (02:40)
398 The Seven Years War (1756-1763) Oct 30, 2015 $19.9925% (65%)0 .. 20,0000%00:00 (00:00)
399 March of the Eagles Feb 18, 2013 $19.9925% (65%/71%)50,000 .. 100,0000%00:00 (00:00)
400 Disney Pirates of the Caribbean: At Worlds End May 22, 2007 $19.9925% (65%)0 .. 20,0000%00:00 (00:00)
401 Spirit of War Mar 12, 2015 $9.9925% (65%)0 .. 20,0000%00:00 (00:00)
402 Frozen Synapse Prime Nov 14, 2014 $24.9925% (65%/83%)50,000 .. 100,0000.63%00:25 (00:08)
403 Double Dragon IV Jan 30, 2017 $6.9924% (64%/50%)0 .. 20,0000%00:00 (00:00)
404 Link Apr 22, 2016 $4.99N/A (N/A)0 .. 20,0000%00:00 (00:00)
405 Jagged Alliance: Crossfire Aug 24, 2012 $14.9924% (64%/63%)100,000 .. 200,0000%00:00 (00:00)
406 Rise: Battle Lines Nov 17, 2015 $1.9924% (64%)0 .. 20,0000%00:00 (00:00)
407 Warlock 2: The Exiled Apr 10, 2014 $19.9924% (64%/73%)50,000 .. 100,0000%00:00 (00:00)
408 Revenge of Roger Rouge Apr 22, 2016 $0.99N/A (N/A)20,000 .. 50,0001.2%02:44 (02:02)
409 A Game of Dwarves Oct 23, 2012 $9.9924% (64%/60%)50,000 .. 100,0000%00:00 (00:00)
410 Urban Pirate Jun 17, 2016 $6.99N/A (N/A)0 .. 20,0000%00:00 (00:00)
411 Battle Worlds: Kronos Nov 4, 2013 $19.9924% (64%/71%)20,000 .. 50,0000%00:00 (00:00)
412 Kaiju-A-GoGo Apr 23, 2015 $9.9924% (64%)20,000 .. 50,0000%00:00 (00:00)
413 Zoo Rampage Jul 9, 2014 $3.9924% (64%)0 .. 20,0000%00:00 (00:00)
414 SPACECOM Sep 17, 2014 $9.9924% (64%/68%)100,000 .. 200,0000.51%00:48 (00:16)
415 Sorcerer King: Rivals Sep 22, 2016 $14.9923% (63%)20,000 .. 50,0000%00:00 (00:00)
416 War, the Game Jan 12, 2015 $6.9923% (63%/65%)20,000 .. 50,0000%00:00 (00:00)
417 Desert Ashes Nov 10, 2014 $4.9923% (63%)0 .. 20,0000%00:00 (00:00)
418 Pixel Boy and the Ever Expanding Dungeon May 30, 2014 $0.9923% (63%)20,000 .. 50,0000%00:00 (00:00)
419 Beasts Battle Jun 15, 2016 $1.9923% (63%)0 .. 20,0000%00:00 (00:00)
420 Port Royale 2 Jun 16, 2009 $4.9923% (63%/75%)50,000 .. 100,0000%00:00 (00:00)
421 Will Fight for Food: Super Actual Sellout: Game of the Hour Apr 22, 2015 $5.9923% (63%)0 .. 20,0000%00:00 (00:00)
422 Bombshell Jan 29, 2016 $34.9922% (62%)0 .. 20,0000%00:00 (00:00)
423 BattleLore: Command Nov 25, 2014 $6.9922% (62%)0 .. 20,0000%00:00 (00:00)
424 Battleplan: American Civil War Jul 4, 2014 $1.4922% (62%/66%)100,000 .. 200,0001.94%04:31 (05:08)
425 Spice Road Apr 24, 2014 $19.9922% (62%)0 .. 20,0000%00:00 (00:00)
426 Goblin Defenders: Steel‘n’ Wood Aug 21, 2013 $2.9922% (62%)20,000 .. 50,0002.7%02:18 (00:46)
427 Hyperspace Pinball Sep 30, 2015 $2.99N/A (N/A)0 .. 20,0000%00:00 (00:00)
428 The Few Jun 18, 2014 $7.9922% (62%)20,000 .. 50,0001.01%04:02 (01:20)
429 Supreme Ruler: Cold War Jul 29, 2011 $9.9922% (62%/63%)20,000 .. 50,0000%00:00 (00:00)
430 Disney Epic Mickey 2: The Power of Two Nov 18, 2012 $19.9922% (62%)20,000 .. 50,0000%00:00 (00:00)
431 Freight Tycoon Inc. Aug 15, 2007 $4.9922% (62%)20,000 .. 50,0000%00:00 (00:00)
432 Flashback Oct 1, 2013 $9.9922% (62%)20,000 .. 50,0000%00:00 (00:00)
433 4089: Ghost Within Jan 9, 2015 $5.9922% (62%)0 .. 20,0000%00:00 (00:00)
434 My Super Tower 2 Jan 27, 2017 $0.49N/A (N/A)0 .. 20,0000%00:00 (00:00)
435 Men of War: Vietnam Sep 8, 2011 $7.9920% (61%/68%)100,000 .. 200,0000%00:00 (00:00)
436 Legions of Steel Jul 16, 2015 $19.99N/A (N/A/64%)0 .. 20,0000%00:00 (00:00)
437 Purgatory Jun 22, 2016 $0.9920% (61%)200,000 .. 500,0000.27%01:06 (00:32)
438 To End All Wars Aug 29, 2014 $39.9920% (61%/71%)0 .. 20,0000%00:00 (00:00)
439 E.T. Armies Mar 3, 2016 $14.9920% (61%/54%)0 .. 20,0000%00:00 (00:00)
440 Quarantine Feb 9, 2017 $9.9920% (61%)0 .. 20,0000%00:00 (00:00)
441 Grim Seventh Jan 20, 2017 FreeN/A (N/A)0 .. 20,0000%00:00 (00:00)
442 Call of Duty: Black Ops - Mac Edition Sep 27, 2012 $19.9919% (60%)50,000 .. 100,0000%00:00 (00:00)
443 Merchants of Kaidan Nov 10, 2014 $14.9919% (60%)100,000 .. 200,0000%00:00 (00:00)
444 7 Grand Steps: What Ancients Begat Jun 7, 2013 $19.9919% (60%)100,000 .. 200,0000%00:00 (00:00)
445 Skyshine's BEDLAM Sep 16, 2015 $19.9919% (60%/67%)20,000 .. 50,0000%00:00 (00:00)
446 DreamBreak Jul 21, 2016 $6.9919% (60%/46%)0 .. 20,0000%00:00 (00:00)
447 Stay Dead Evolution Feb 4, 2015 $5.9919% (60%)20,000 .. 50,0000%00:00 (00:00)
448 Close Combat - Panthers in the Fog Nov 19, 2012 $39.9919% (60%)0 .. 20,0000%00:00 (00:00)
449 Hybrid Wars Sep 29, 2016 $17.9919% (60%/54%)0 .. 20,0000%00:00 (00:00)
450 Overruled! Sep 15, 2015 $12.9919% (60%)20,000 .. 50,0000%00:00 (00:00)
451 Code of Princess Apr 14, 2016 $14.9919% (60%/53%)0 .. 20,0000%00:00 (00:00)
452 Life in Bunker Feb 25, 2016 $15.9919% (60%)0 .. 20,0000%00:00 (00:00)
453 Patrician IV - Steam Special Edition Sep 17, 2010 $14.9919% (60%/66%)100,000 .. 200,0000%00:00 (00:00)
454 Disciples III - Renaissance Steam Special Edition Jul 16, 2010 $14.9919% (60%/56%)100,000 .. 200,0000%00:00 (00:00)
455 Armada 2526 Gold Edition Feb 28, 2013 $19.9918% (59%/66%)20,000 .. 50,0000%00:00 (00:00)
456 Ceres Oct 16, 2015 $19.9918% (59%/74%)0 .. 20,0000%00:00 (00:00)
457 Prospekt Feb 18, 2016 $9.9918% (59%)20,000 .. 50,0000%00:00 (00:00)
458 Super Helmets on Fire DX Ultra Edition Plus Alpha Feb 15, 2016 $0.99N/A (N/A)0 .. 20,0000%00:00 (00:00)
459 Woolfe - The Red Hood Diaries Mar 17, 2015 $9.9918% (59%/55%)50,000 .. 100,0000%00:00 (00:00)
460 Cemetery Warrior 3 Feb 3, 2017 $0.4918% (59%)50,000 .. 100,0000.89%01:51 (01:14)
461 VR Journey Dec 15, 2016 $0.518% (59%)20,000 .. 50,0000%00:00 (00:00)
462 Ninjahtic Mind Tricks Jul 16, 2015 $1.99N/A (N/A)0 .. 20,0000%00:00 (00:00)
463 Antisquad Oct 31, 2014 $5.9918% (59%)50,000 .. 100,00011.43%08:49 (09:23)
464 Sir! I'd Like To Report A Bug! Oct 19, 2015 $1.99N/A (N/A)0 .. 20,0000%00:00 (00:00)
465 Adventure World Aug 2, 2016 $4.99N/A (N/A)0 .. 20,0000%00:00 (00:00)
466 Colonial Conquest Jul 28, 2015 $9.9917% (58%)0 .. 20,0000%00:00 (00:00)
467 Heavy Fire: Afghanistan Aug 15, 2014 $2.9917% (58%)20,000 .. 50,0000%00:00 (00:00)
468 Wanderlust Adventures Aug 10, 2015 $9.9917% (58%)20,000 .. 50,0000%00:00 (00:00)
469 Check vs Mate Aug 16, 2012 $19.9917% (58%/69%)0 .. 20,0000%00:00 (00:00)
470 Woodle Tree 2: Worlds Sep 16, 2016 $3.9917% (58%)20,000 .. 50,0001.89%23:41 (07:53)
471 Prophour23 Oct 22, 2014 $9.9917% (58%)0 .. 20,0000%00:00 (00:00)
472 NOBUNAGA'S AMBITION: Sphere of Influence - Ascension / 信長の野望・創造 戦国立志伝 Mar 23, 2016 $59.9917% (58%)50,000 .. 100,0000%00:00 (00:00)
473 Gates of Horizon Dec 18, 2014 $9.9916% (57%)0 .. 20,0000%00:00 (00:00)
474 Rise of Venice Sep 27, 2013 $19.9916% (57%/66%)50,000 .. 100,0000%00:00 (00:00)
475 Assault on Arnhem Mar 11, 2016 $9.99N/A (N/A)0 .. 20,0000%00:00 (00:00)
476 Defend Your Crypt Jul 21, 2016 $2.99N/A (N/A)0 .. 20,0000%00:00 (00:00)
477 Unearthed: Trail of Ibn Battuta - Episode 1 - Gold Edition Jan 3, 2014 $4.9916% (57%)20,000 .. 50,0000%00:00 (00:00)
478 reconquest Dec 16, 2016 $11.9915% (56%)0 .. 20,0000%00:00 (00:00)
479 Horizon Feb 6, 2014 $7.4915% (56%)50,000 .. 100,0000%00:00 (00:00)
480 Delve Deeper Sep 24, 2010 $4.9915% (56%)50,000 .. 100,0000%00:00 (00:00)
481 Defence to death May 11, 2017 $1.99N/A (N/A)50,000 .. 100,0000.27%01:00 (00:20)
482 Gnumz: Masters of Defense Dec 21, 2015 $4.9915% (56%)20,000 .. 50,0000.46%02:07 (00:42)
483 Abalone Apr 23, 2014 $4.9915% (56%)0 .. 20,0003.85%05:34 (01:51)
484 Sovereignty: Crown of Kings Feb 2, 2017 $24.9915% (55%)0 .. 20,0000%00:00 (00:00)
485 Pain Train Jan 11, 2017 $0.9915% (55%)20,000 .. 50,0001.01%08:57 (02:59)
486 BC Kings Jun 16, 2009 $4.9915% (55%)20,000 .. 50,0000%00:00 (00:00)
487 Tic-Toc-Tower Sep 28, 2015 $2.9914% (54%)0 .. 20,0000%00:00 (00:00)
488 Wickland Nov 14, 2014 $0.9914% (54%)50,000 .. 100,0000%00:00 (00:00)
489 Nightside Apr 2, 2015 $9.9913% (53%)20,000 .. 50,0000%00:00 (00:00)
490 The Stalin Subway Oct 5, 2006 $3.9913% (53%)20,000 .. 50,0000%00:00 (00:00)
491 Aegis Oct 6, 2016 $2.99N/A (N/A)0 .. 20,0000%00:00 (00:00)
492 Armada 2526 Apr 8, 2011 $14.99N/A (N/A/66%)0 .. 20,0000%00:00 (00:00)
493 Urja Jan 9, 2015 $9.9913% (53%)20,000 .. 50,0000%00:00 (00:00)
494 RESCUE 2: Everyday Heroes Jun 3, 2015 $19.9913% (53%)20,000 .. 50,0000%00:00 (00:00)
495 Smugglers 5 Apr 11, 2014 $3.9913% (53%)20,000 .. 50,0000%00:00 (00:00)
496 Story Of the Survivor Feb 17, 2016 $4.99N/A (N/A)20,000 .. 50,0000%00:00 (00:00)
497 Crusaders: Thy Kingdom Come Oct 8, 2009 $9.99N/A (N/A)20,000 .. 50,0000%00:00 (00:00)
498 Scapeland Mar 31, 2016 $3.9913% (52%)0 .. 20,0000%00:00 (00:00)
499 Meridian: New World Apr 4, 2014 $6.9913% (52%/43%)50,000 .. 100,0000%00:00 (00:00)
500 Royal Bounty HD Aug 10, 2015 $2.9913% (52%)0 .. 20,0000%00:00 (00:00)
501 Dusty Revenge:Co-Op Edition Feb 17, 2014 $14.9912% (51%)50,000 .. 100,0000%00:00 (00:00)
502 PeriAreion Feb 19, 2015 $5.99N/A (N/A)0 .. 20,0000%00:00 (00:00)
503 MinosMaze - The Minotaur's Labyrinth May 1, 2017 $4.99N/A (N/A)0 .. 20,0000%00:00 (00:00)
504 Biodrone Battle Jul 16, 2015 $1.9912% (51%)100,000 .. 200,0000.6%00:08 (00:02)
505 Guncraft Aug 9, 2013 $14.9912% (51%/73%)100,000 .. 200,0000%00:00 (00:00)
506 MDK2 HD Jul 30, 2012 $5.0911% (50%/73%)0 .. 20,0000%00:00 (00:00)
507 Marvel: Ultimate Alliance 2 Jul 26, 2016 $39.9911% (50%)0 .. 20,0000%00:00 (00:00)
508 Albedo: Eyes from Outer Space Apr 10, 2015 $14.9911% (50%/66%)50,000 .. 100,0000%00:00 (00:00)
509 Weather Lord: The Successor's Path Apr 8, 2015 $4.99N/A (N/A)0 .. 20,0000%00:00 (00:00)
510 Odd||Even Apr 6, 2016 $0.6911% (50%)20,000 .. 50,0000%00:00 (00:00)
511 No Pineapple Left Behind Feb 18, 2016 $9.99N/A (N/A/59%)0 .. 20,0000%00:00 (00:00)
512 Kidnapped Aug 4, 2015 $2.9911% (49%)100,000 .. 200,0000%00:00 (00:00)
513 Synonymy Dec 12, 2014 $1.9910% (48%)0 .. 20,0000%00:00 (00:00)
514 Rubber and Lead Sep 4, 2015 $4.9910% (48%)20,000 .. 50,0000%00:00 (00:00)
515 Castle Werewolf 3D Feb 7, 2017 $2.9910% (48%)50,000 .. 100,00013.54%04:14 (04:22)
516 Meridian: Squad 22 Aug 11, 2016 $14.9910% (48%)0 .. 20,0000%00:00 (00:00)
517 HitBox Jan 30, 2017 Free10% (48%)0 .. 20,0000%00:00 (00:00)
518 Aggression: Europe Under Fire May 10, 2007 $9.9910% (48%)50,000 .. 100,0000%00:00 (00:00)
519 Star Traders: 4X Empires Nov 18, 2014 $9.9910% (48%)0 .. 20,0000%00:00 (00:00)
520 Z Steel Soldiers Aug 1, 2014 $12.9910% (48%)50,000 .. 100,0004.67%03:11 (04:45)
521 Blasting Agent: Ultimate Edition Aug 17, 2016 $2.99N/A (N/A)0 .. 20,0000%00:00 (00:00)
522 Hell Nov 13, 2014 $29.99N/A (N/A)0 .. 20,0000%00:00 (00:00)
523 Disposable Heroes Oct 1, 2015 $4.999% (47%)0 .. 20,0002.38%05:09 (01:43)
524 Island Defense Jul 23, 2015 $1.999% (47%)50,000 .. 100,0000.43%04:31 (01:30)
525 Hero Generations Apr 10, 2015 $5.999% (47%)0 .. 20,0000%00:00 (00:00)
526 Crossfire: Dungeons Jan 15, 2007 $3.999% (47%)0 .. 20,0000%00:00 (00:00)
527 The Stalin Subway: Red Veil Oct 5, 2006 $2.999% (46%)50,000 .. 100,0002.56%00:01 (00:00)
528 Magic Quest May 6, 2016 $1.99N/A (N/A)50,000 .. 100,0000.85%05:02 (03:21)
529 Megamagic: Wizards of the Neon Age Apr 20, 2016 $9.999% (46%/67%)0 .. 20,0001.54%06:06 (02:02)
530 Redemption: Saints And Sinners Nov 18, 2016 $0.999% (46%)50,000 .. 100,0000.46%03:15 (01:05)
531 Commander: Conquest of the Americas Jul 30, 2010 $9.999% (46%/68%)50,000 .. 100,0000%00:00 (00:00)
532 Carrier Command: Gaea Mission Sep 28, 2012 $32.998% (45%/60%)200,000 .. 500,0000%00:00 (00:00)
533 World War 2: Time of Wrath Jun 15, 2009 $4.998% (45%)20,000 .. 50,0000%00:00 (00:00)
534 Chronostorm: Siberian Border Apr 2, 2009 $0.99N/A (N/A)0 .. 20,0000%00:00 (00:00)
535 Battle Chess: Game of Kings Dec 11, 2015 $10.198% (45%)0 .. 20,0000%00:00 (00:00)
536 The Bluecoats: North vs South May 10, 2012 $4.998% (45%)50,000 .. 100,0000%00:00 (00:00)
537 Nux Dec 26, 2006 $6.998% (44%)100,000 .. 200,0000.91%02:47 (03:00)
538 Impire Feb 14, 2013 $19.998% (44%/45%)100,000 .. 200,0000%00:00 (00:00)
539 Skyward Collapse May 23, 2013 $4.998% (43%/64%)20,000 .. 50,0000%00:00 (00:00)
540 Pride of Nations Jun 7, 2011 $19.998% (43%/70%)20,000 .. 50,0000%00:00 (00:00)
541 DUNGEONS - Steam Special Edition Feb 10, 2011 $9.998% (43%/65%)200,000 .. 500,0000%00:00 (00:00)
542 Samudai Feb 9, 2015 $2.997% (42%)20,000 .. 50,0000%00:00 (00:00)
543 The Entente Gold Aug 11, 2003 $1.997% (42%)50,000 .. 100,0000%00:00 (00:00)
544 Sword of the Stars II: Enhanced Edition Nov 30, 2012 $19.997% (42%/65%)100,000 .. 200,0000%00:00 (00:00)
545 Burstfire Sep 24, 2015 N/A7% (42%)50,000 .. 100,0001.01%00:32 (00:10)
546 Heavy Fire: Shattered Spear Oct 23, 2015 $3.99N/A (N/A)0 .. 20,0000%00:00 (00:00)
547 Lost in Paradise Aug 20, 2015 $2.997% (41%)20,000 .. 50,0000%00:00 (00:00)
548 Hydraulic Empire Jul 31, 2015 $7.997% (41%)0 .. 20,0000%00:00 (00:00)
549 Wave of Darkness Nov 5, 2015 $29.997% (41%)0 .. 20,0000%00:00 (00:00)
550 Control Craft 2 Feb 15, 2016 $2.997% (41%)0 .. 20,0003.13%05:44 (01:54)
551 Infection: Humanity's Last Gasp May 26, 2016 $9.99N/A (N/A)0 .. 20,0000%00:00 (00:00)
552 Rulers of Nations Jul 16, 2014 $19.997% (41%/63%)0 .. 20,0000%00:00 (00:00)
553 The Kings' Crusade Oct 8, 2010 $9.996% (40%/71%)50,000 .. 100,0000%00:00 (00:00)
554 Dead But Alive! Southern England Oct 2, 2015 $5.996% (40%)0 .. 20,0000%00:00 (00:00)
555 R.I.P.D.: The Game Jul 16, 2013 $9.996% (40%)20,000 .. 50,0000%00:00 (00:00)
556 Devils & Demons Oct 6, 2015 $9.996% (40%)20,000 .. 50,0000%00:00 (00:00)
557 Pain Train 2 Mar 16, 2017 $6.996% (39%)0 .. 20,0000%00:00 (00:00)
558 Zombie Apocalypse: Escape The Undead City Nov 25, 2013 $0.996% (39%)0 .. 20,0000%00:00 (00:00)
559 Dark Matter Oct 17, 2013 $9.996% (39%)0 .. 20,0000%00:00 (00:00)
560 Dungeons - The Dark Lord Sep 27, 2011 $19.996% (39%/72%)100,000 .. 200,0000%00:00 (00:00)
561 Gratuitous Space Battles 2 Apr 16, 2015 $9.996% (38%)20,000 .. 50,0000%00:00 (00:00)
562 Mechs & Mercs: Black Talons Jan 9, 2015 $9.996% (38%)0 .. 20,0000%00:00 (00:00)
563 Risk Jun 10, 2013 $9.996% (38%)20,000 .. 50,0000%00:00 (00:00)
564 Strategic War in Europe Mar 21, 2014 $2.246% (38%)20,000 .. 50,0000%00:00 (00:00)
565 Tiamat X May 29, 2015 $1.995% (37%)20,000 .. 50,0000%00:00 (00:00)
566 Stellar Impact Apr 12, 2012 $9.995% (37%/74%)50,000 .. 100,0001.37%03:32 (01:10)
567 Kick-Ass 2 Aug 15, 2014 $19.995% (36%)0 .. 20,0000%00:00 (00:00)
568 Blue Sheep Mar 31, 2016 $1.99N/A (N/A)0 .. 20,0000%00:00 (00:00)
569 Fallen: A2P Protocol Aug 14, 2015 $9.995% (35%)20,000 .. 50,0000%00:00 (00:00)
570 Knight Adventure Oct 15, 2015 $0.99N/A (N/A)50,000 .. 100,0000.45%02:12 (00:44)
571 Urban Empire Jan 20, 2017 $29.995% (35%/62%)50,000 .. 100,0000%00:00 (00:00)
572 Arma Tactics Oct 1, 2013 $8.994% (34%/47%)200,000 .. 500,0000%00:00 (00:00)
573 CTU: Counter Terrorism Unit Apr 22, 2016 $2.994% (34%)0 .. 20,0000%00:00 (00:00)
574 Into the Void Dec 4, 2015 $4.994% (34%)20,000 .. 50,0000%00:00 (00:00)
575 Shadows of War Sep 19, 2014 $2.994% (34%)20,000 .. 50,0000%00:00 (00:00)
576 Sim Junta Aug 18, 2015 $1.994% (33%)0 .. 20,0000%00:00 (00:00)
577 Ranger of the jungle Jul 16, 2016 $3.99N/A (N/A)0 .. 20,0000%00:00 (00:00)
578 Jagged Alliance Flashback Oct 21, 2014 $19.994% (33%)20,000 .. 50,0000%00:00 (00:00)
579 Disciples III - Resurrection Oct 11, 2011 $14.994% (32%/63%)100,000 .. 200,0000%00:00 (00:00)
580 Robotex Nov 18, 2014 $4.994% (31%)100,000 .. 200,0000%00:00 (00:00)
581 Tank Operations: European Campaign Nov 22, 2013 $14.994% (31%)20,000 .. 50,0000%00:00 (00:00)
582 - Arcane RERaise - Apr 4, 2017 $2.994% (31%)200,000 .. 500,00026.75%04:01 (04:10)
583 Zombie Zoeds May 20, 2015 $4.994% (31%)200,000 .. 500,0000%00:00 (00:00)
584 Ku: Shroud of the Morrigan Mar 17, 2014 $4.994% (31%)20,000 .. 50,0000%00:00 (00:00)
585 Psichodelya Aug 8, 2014 $1.994% (31%)100,000 .. 200,0001.41%03:08 (03:08)
586 Evopollution Apr 23, 2014 $4.994% (31%)0 .. 20,0000%00:00 (00:00)
587 Ground Pounders Jul 15, 2014 $4.99N/A (N/A)0 .. 20,0000%00:00 (00:00)
588 A Game of Thrones - Genesis Sep 28, 2011 $9.993% (30%)100,000 .. 200,0000%00:00 (00:00)
589 Power of Defense Aug 4, 2010 $9.99N/A (N/A)0 .. 20,0000%00:00 (00:00)
590 Defenders of Time Nov 4, 2014 N/AN/A (N/A/55%)0 .. 20,0000%00:00 (00:00)
591 Solar Shifter EX Sep 11, 2015 $4.993% (28%)0 .. 20,0000%00:00 (00:00)
592 Hard Truck Apocalypse: Arcade / Ex Machina: Arcade May 24, 2007 $4.993% (26%)20,000 .. 50,0000%00:00 (00:00)
593 Gridberd Sep 7, 2015 $6.993% (26%)200,000 .. 500,0000.18%00:45 (00:15)
594 Zombies on a Plane Mar 25, 2016 $4.992% (25%)0 .. 20,0000%00:00 (00:00)
595 One Star Apr 17, 2017 $2.99N/A (N/A)50,000 .. 100,0000.49%03:23 (01:07)
596 APOX Jan 20, 2011 $14.992% (23%/48%)20,000 .. 50,0000%00:00 (00:00)
597 The Asskickers-Steam Edition Feb 6, 2015 $9.992% (22%)0 .. 20,0000%00:00 (00:00)
598 Elite vs. Freedom May 31, 2016 $4.992% (22%)0 .. 20,0000%00:00 (00:00)
599 Lords of the Black Sun Sep 12, 2014 $29.992% (21%)0 .. 20,0000%00:00 (00:00)
600 Human Extinction Simulator Jan 21, 2015 $19.99N/A (N/A)0 .. 20,0000%00:00 (00:00)
601 Gemini Wars Nov 2, 2012 $14.992% (18%/53%)20,000 .. 50,0000%00:00 (00:00)
602 Tryst Sep 14, 2012 $14.99N/A (N/A/50%)0 .. 20,0000%00:00 (00:00)
603 Star Project Aug 4, 2016 $1.992% (16%)100,000 .. 200,0007.5%04:17 (04:21)
604 Prison Tycoon 3: Lockdown Jan 29, 2008 $9.991% (15%)20,000 .. 50,0000%00:00 (00:00)
605 Once Bitten, Twice Dead! Jul 17, 2015 $4.991% (13%)20,000 .. 50,0000%00:00 (00:00)
606 Citadels Jul 25, 2013 $14.991% (12%/20%)20,000 .. 50,0000%00:00 (00:00)
607 Bloodbath Jun 16, 2014 $14.99N/A (N/A)0 .. 20,0000%00:00 (00:00)
608 Magnetic By Nature Nov 10, 2014 $9.99N/A (N/A)20,000 .. 50,0000%00:00 (00:00)

Owners of this game also own:

Access restricted.

This feature is only available to users with special access rights. Sorry.

If you want to proceed, you need to register or log in first and then back Steam Spy on Patreon. Look for Indie or Pro pledge.

Don't forget to use the same email as on Steam Spy!

Playtime distribution:

Access restricted.

This feature is only available to users with special access rights. Sorry.

If you want to proceed, you need to register or log in first and then back Steam Spy on Patreon. Look for Indie or Pro pledge.

Don't forget to use the same email as on Steam Spy!

Playtime (2 weeks):

Access restricted.

This feature is only available to users with special access rights. Sorry.

If you want to proceed, you need to register or log in first and then back Steam Spy on Patreon. Look for Indie or Pro pledge.

Don't forget to use the same email as on Steam Spy!

User reviews:

Login required.

Please register or log in to see this information.